Juneau, AK

9:18 PM AKDT on June 23, 2017 (GMT -0800)
Juneau International

Weather History for PAJN - August, 2013

Change the Weather History Date:

Thursday, August 22, 2013

  Actual Average Record
Temperature  
Mean Temperature 55 °F 55 °F  
Max Temperature 58 °F 62 °F 79 °F (1979)
Min Temperature 52 °F 48 °F 38 °F (1954)
Degree Days  
Heating Degree Days 10 10  
Month to date heating degree days 128 186  
Since 1 June heating degree days 564 752  
Since 1 July heating degree days 350 437  
Cooling Degree Days 0 0  
Month to date cooling degree days 0 0  
Year to date cooling degree days 9 2  
Since 1 June cooling degree days 9 2  
Growing Degree Days 6 (Base 50)    
Moisture  
Dew Point 51 °F    
Average Humidity 88    
Maximum Humidity 96    
Minimum Humidity 80    
Precipitation  
Precipitation T in 0.20 in 1.24 in (1962)
Month to date precipitation 3.24 3.77  
Year to date precipitation 39.25 31.21  
Sea Level Pressure  
Sea Level Pressure 29.87 in    
Wind  
Wind Speed 9 mph (East)    
Max Wind Speed 12 mph    
Max Gust Speed -    
Visibility 10 miles    
Events Rain    
T = Trace of Precipitation, MM = Missing Value Source: NWS Daily Summary

Daily Weather History Graph

Daily Weather History Graph

Search for Another Location

Airport or City:

Trip Planner

Search our weather history database for the weather conditions in past years. The results will help you decide how hot, cold, wet, or windy it might be!

Date:

Astronomy

Aug. 22, 2013 Rise Set
Actual Time 5:36 AM AKDT 8:24 PM AKDT
Civil Twilight 4:51 AM AKDT 9:08 PM AKDT
Nautical Twilight 3:50 AM AKDT 10:08 PM AKDT
Astronomical Twilight 2:23 AM AKDT 11:32 PM AKDT
Moon 8:25 PM AKDT (8/22) 8:13 AM AKDT (8/22)
Length of Visible Light 16h 17m
Length of Day
14h 47m
Waning Gibbous, 96% of the Moon is Illuminated
Aug 22
Waning Gibbous
Aug 28
Last Quarter
Sep 5
New
Sep 12
First Quarter
Sep 19
Full

Hourly Weather History & Observations

Time (AKDT) Temp. Dew Point Humidity Pressure Visibility Wind Dir Wind Speed Gust Speed Precip Events Conditions
12:53 AM 52.0 °F 51.1 °F 97% 29.87 in 10.0 mi ENE 6.9 mph - 0.00 in   Overcast
1:53 AM 52.0 °F 50.0 °F 93% 29.87 in 10.0 mi ESE 8.1 mph - 0.00 in Rain Light Rain
2:53 AM 52.0 °F 50.0 °F 93% 29.87 in 10.0 mi East 9.2 mph - 0.00 in   Overcast
3:53 AM 53.1 °F 50.0 °F 89% 29.86 in 10.0 mi ENE 6.9 mph - 0.00 in   Overcast
4:53 AM 53.1 °F 50.0 °F 89% 29.86 in 10.0 mi East 10.4 mph - N/A   Overcast
5:53 AM 52.0 °F 50.0 °F 93% 29.86 in 10.0 mi East 10.4 mph - N/A   Overcast
6:53 AM 53.1 °F 50.0 °F 89% 29.86 in 10.0 mi East 11.5 mph - N/A   Overcast
7:53 AM 52.0 °F 51.1 °F 97% 29.87 in 10.0 mi East 9.2 mph - 0.00 in Rain Light Rain
8:53 AM 53.1 °F 51.1 °F 93% 29.88 in 10.0 mi East 11.5 mph - 0.00 in   Overcast
9:53 AM 55.0 °F 52.0 °F 89% 29.88 in 10.0 mi East 11.5 mph - N/A   Overcast
10:53 AM 55.9 °F 52.0 °F 87% 29.88 in 10.0 mi East 11.5 mph - N/A   Overcast
11:53 AM 57.9 °F 52.0 °F 81% 29.89 in 10.0 mi ENE 8.1 mph - N/A   Overcast
12:53 PM 57.9 °F 52.0 °F 81% 29.89 in 10.0 mi West 8.1 mph - 0.00 in   Overcast
1:53 PM 57.9 °F 52.0 °F 81% 29.89 in 10.0 mi Calm Calm - N/A   Overcast
2:53 PM 57.9 °F 52.0 °F 81% 29.88 in 10.0 mi East 6.9 mph - N/A   Overcast
3:53 PM 57.9 °F 51.1 °F 78% 29.88 in 10.0 mi ESE 8.1 mph - N/A   Overcast
4:53 PM 57.9 °F 51.1 °F 78% 29.88 in 10.0 mi ENE 5.8 mph - N/A   Overcast
5:53 PM 57.0 °F 51.1 °F 81% 29.88 in 10.0 mi East 6.9 mph - N/A   Overcast
6:53 PM 55.9 °F 52.0 °F 87% 29.87 in 10.0 mi ENE 5.8 mph - N/A   Overcast
7:53 PM 55.9 °F 53.1 °F 90% 29.86 in 10.0 mi East 5.8 mph - N/A   Overcast
8:53 PM 55.0 °F 53.1 °F 93% 29.87 in 10.0 mi East 5.8 mph - N/A   Overcast
9:53 PM 55.9 °F 52.0 °F 87% 29.87 in 10.0 mi ENE 6.9 mph - N/A   Overcast
10:53 PM 55.0 °F 52.0 °F 89% 29.86 in 10.0 mi East 6.9 mph - N/A   Overcast
11:53 PM 55.0 °F 52.0 °F 89% 29.86 in 10.0 mi East 9.2 mph - N/A   Overcast